Volver al catálogo

DELTA 1 DEB

ActivoSSO
NORAD 37636·DEBRIS·🇺🇸 United States

Lanzado Mar 5, 1978 desde Vandenberg Space Force Base

Loading…

Próximos Pases (próximas 24 horas)

TLE

EnvejeciendoSource: Space-Track

Época: Sep 9, 2026, 16:59 UTC

1 37636U 78026HX  26252.70781081  .00000430  00000-0  29625-3 0  9991
2 37636  98.9478 200.3908 0058011 134.0858 226.5104 14.03784526769820

Sigue DELTA 1 DEB en tiempo real con AllMySat

Download on the App Store